TimePDT,TemperatureF,Dew PointF,Humidity,Sea Level PressureIn,VisibilityMPH,Wind Direction,Wind SpeedMPH,Gust SpeedMPH,PrecipitationIn,Events,Conditions,WindDirDegrees,DateUTC
12:53 AM,39.9,37.0,89,30.00,10.0,Calm,Calm,-,N/A,,Clear,0,2013-03-27 07:53:00
1:53 AM,39.9,37.9,93,30.00,9.0,Calm,Calm,-,N/A,,Clear,0,2013-03-27 08:53:00
2:53 AM,39.0,37.0,93,29.99,10.0,Calm,Calm,-,N/A,,Clear,0,2013-03-27 09:53:00
3:53 AM,37.0,35.1,93,29.99,10.0,Calm,Calm,-,N/A,,Clear,0,2013-03-27 10:53:00
4:53 AM,37.9,35.1,89,29.99,5.0,Calm,Calm,-,N/A,,Clear,0,2013-03-27 11:53:00
5:53 AM,37.0,35.1,93,29.99,10.0,Calm,Calm,-,N/A,,Clear,0,2013-03-27 12:53:00
6:53 AM,34.0,33.1,96,29.99,10.0,North,3.5,-,N/A,,Clear,350,2013-03-27 13:53:00
7:53 AM,36.0,35.1,97,29.99,10.0,Variable,3.5,-,N/A,,Clear,0,2013-03-27 14:53:00
8:53 AM,42.1,39.0,89,29.99,10.0,Calm,Calm,-,N/A,,Clear,0,2013-03-27 15:53:00
9:53 AM,46.9,39.0,74,29.99,10.0,Calm,Calm,-,N/A,,Scattered Clouds,0,2013-03-27 16:53:00
10:53 AM,52.0,39.9,63,29.99,10.0,NNE,5.8,-,N/A,,Clear,30,2013-03-27 17:53:00
11:53 AM,55.0,39.9,57,29.99,10.0,NNW,5.8,-,N/A,,Scattered Clouds,330,2013-03-27 18:53:00
12:53 PM,59.0,39.0,48,29.98,10.0,North,6.9,-,N/A,,Mostly Cloudy,10,2013-03-27 19:53:00
1:53 PM,60.1,39.9,47,29.98,10.0,Variable,3.5,-,N/A,,Overcast,0,2013-03-27 20:53:00
2:53 PM,59.0,42.1,53,29.97,10.0,Variable,6.9,-,N/A,,Mostly Cloudy,0,2013-03-27 21:53:00
3:53 PM,55.9,39.0,53,29.98,10.0,West,5.8,-,N/A,,Overcast,260,2013-03-27 22:53:00
4:53 PM,55.0,39.0,55,29.99,10.0,Variable,3.5,-,N/A,,Overcast,0,2013-03-27 23:53:00
5:53 PM,54.0,39.9,59,29.99,10.0,Variable,4.6,-,N/A,,Mostly Cloudy,0,2013-03-28 00:53:00
6:53 PM,53.1,39.0,59,30.00,10.0,Calm,Calm,-,N/A,,Overcast,0,2013-03-28 01:53:00
7:53 PM,52.0,41.0,66,30.00,10.0,Calm,Calm,-,N/A,,Overcast,0,2013-03-28 02:53:00
8:53 PM,50.0,41.0,71,30.01,10.0,Calm,Calm,-,N/A,,Overcast,0,2013-03-28 03:53:00
9:53 PM,48.9,41.0,74,30.01,10.0,Calm,Calm,-,N/A,,Overcast,0,2013-03-28 04:53:00
10:53 PM,50.0,39.9,68,30.02,10.0,Calm,Calm,-,N/A,,Overcast,0,2013-03-28 05:53:00
11:53 PM,48.0,41.0,77,30.03,10.0,Calm,Calm,-,N/A,,Overcast,0,2013-03-28 06:53:00